SCP
0 0 0 0 0 0 0 0 0 0 0 0 0 0 0 0 0 0 0 0 0 0 0 0 0 0 0 0 0 0 0 0 0 0 0 0 0 0 0 0 0 0 0 0 0 0 0 0 0
0 0 0 0 0 0 0 0 0 0 0 0 0 0 0 0 0 0 0 0 0 0 0 0 0 0 0 0 0 0 0 0 0 0 0 0 0 0 0 0 0 0 0 0 0 0 0 0 0
0 0 -0 0 0 0 0 0 0 0 0 0 0 0 0 0 0 0 0 0 0 0 0 0 0 0 0 0 0 0 0 0 0 0 0 0 0 0 0 0 0 0 0 0 0 0 0 0 0
0 0 -0 0 0 0 0 0 0 0 0 0 0 0 0 0 0 0 0 0 0 0 0 0 0 0 0 0 0 0 0 0 0 0 0 0 0 0 0 0 0 0 0 0 0 0 0 0 0
-0 -0 -0 0 0 0 0 0 0 0 0 0 0 0 0 0 0 0 0 0 0 0 0 0 0 0 0 0 0 0 0 0 0 0 0 0 0 0 0 0 0 0 0 0 0 0 0 0 0
0 0 0 -0 -0 0 0 0 0 0 0 0 0 0 0 0 0 0 0 0 0 0 0 0 0 0 0 0 0 0 0 0 0 0 0 0 0 0 0 0 0 0 0 0 0 0 0 0 0
0 0 0 0 -0 0 0 0 0 0 0 0 0 0 0 0 0 0 0 0 0 0 0 0 0 0 0 0 0 0 0 0 0 0 0 0 0 0 0 0 0 0 0 0 0 0 0 0 0
0 0 0 0 0 0 0 0 0 0 0 0 0 0 0 0 0 0 0 0 0 0 0 0 0 0 0 0 0 0 0 0 0 0 0 0 0 0 0 0 0 0 0 0 0 0 0 0 0
0 0 0 0 0 0 0 0 0 0 0 0 0 0 0 0 0 0 0 0 0 0 0 0 0 0 0 0 0 0 0 0 0 0 0 0 0 0 0 0 0 0 0 0 0 0 0 0 0
0 0 0 0 0 0 0 0 0 0 0 0 0 0 0 0 0 0 0 0 0 0 0 0 0 0 0 0 0 0 0 0 0 0 0 0 0 0 0 0 0 0 0 0 0 0 0 0 0
0 0 0 0 0 0 0 0 0 0 0 0 0 0 0 0 0 0 0 0 0 0 0 0 0 0 0 0 0 0 0 0 0 0 0 0 0 0 0 0 0 0 0 0 0 0 0 0 0
0 0 0 0 0 0 0 0 0 0 0 0 0 0 0 0 0 0 0 0 0 0 0 0 0 0 0 0 0 0 0 0 0 0 0 0 0 0 0 0 0 0 0 0 0 0 0 0 0
0 0 0 0 0 0 0 0 0 0 0 0 0 0 0 0 0 0 0 0 0 0 0 0 0 0 0 0 0 0 0 0 0 0 0 0 0 0 0 0 0 0 0 0 0 0 0 0 0
0 0 0 0 0 0 0 0 0 0 0 0 0 0 0 0 0 0 0 0 0 0 0 0 0 0 0 0 0 0 0 0 0 0 0 0 0 0 0 0 0 0 0 0 0 0 0 0 0
0 0 0 0 0 0 0 0 0 0 0 0 0 0 0 0 0 0 0 0 0 0 0 0 0 0 0 0 0 0 0 0 0 0 0 0 0 0 0 0 0 0 0 0 0 0 0 0 0
0 0 0 0 0 0 0 0 0 0 0 0 0 0 0 0 0 0 0 0 0 0 0 0 0 0 0 0 0 0 0 0 0 0 0 0 0 0 0 0 0 0 0 0 0 0 0 0 0
0 0 0 0 0 0 0 0 0 0 0 0 0 0 0 0 0 0 0 0 0 0 0 0 0 0 0 0 0 0 0 0 0 0 0 0 0 0 0 0 0 0 0 0 0 0 0 0 0
0 0 0 0 0 0 0 0 0 0 0 0 0 0 0 0 0 0 0 0 0 0 0 0 0 0 0 0 0 0 0 0 0 0 0 0 0 0 0 0 0 0 0 0 0 0 0 0 0
0 0 0 0 0 0 0 0 0 0 0 0 0 0 0 0 0 0 0 0 0 0 0 0 0 0 0 0 0 0 0 0 0 0 0 0 0 0 0 0 0 0 0 0 0 0 0 0 0
0 0 0 0 0 0 0 0 0 0 0 0 0 0 0 0 0 0 0 0 0 0 0 0 0 0 0 0 0 0 0 0 0 0 0 0 0 0 0 0 0 0 0 0 0 0 0 0 0
0 0 0 0 0 0 0 0 0 0 0 0 0 0 0 0 0 0 0 0 0 0 0 0 0 0 0 0 0 0 0 0 0 0 0 0 0 0 0 0 0 0 0 0 0 0 0 0 0
0 0 0 0 0 0 0 0 0 0 0 0 0 0 0 0 0 0 0 -0 0 0 0 0 0 0 0 0 0 0 0 0 0 0 0 0 0 0 0 0 0 0 0 0 0 0 0 0 0
0 0 0 0 0 0 0 0 0 0 0 0 0 0 0 0 0 0 -0 -0 0 0 0 0 0 0 0 0 0 0 0 0 0 0 0 0 0 0 0 0 0 0 0 0 0 0 0 0 0
0 0 0 0 0 0 0 0 0 0 0 0 0 0 0 0 0 -0 -0 0 0 0 0 0 0 0 0 0 0 0 0 0 0 0 0 0 0 0 0 0 0 0 0 0 0 0 0 0 0
0 0 0 0 0 0 0 0 0 0 0 0 0 0 0 0 0 -0 -0 0 0 0 0 0 0 0 0 0 0 0 0 0 0 0 0 0 0 0 0 0 0 0 0 0 0 0 0 0 0
0 0 0 0 0 0 0 0 0 0 0 0 0 0 0 0 0 -0 -0 0 0 0 0 0 0 0 0 0 0 0 0 0 0 0 0 0 0 0 0 0 0 0 0 0 0 0 0 0 0
0 0 0 0 0 0 0 0 0 0 0 0 0 0 0 0 -0 -0 0 0 0 0 0 0 0 0 0 0 0 0 0 0 0 0 0 0 0 0 0 0 0 0 0 0 0 0 0 0 0
0 0 0 0 0 0 0 0 0 0 0 0 0 0 0 -0 -0 0 0 0 0 0 0 0 0 0 0 0 0 0 0 0 0 0 0 0 0 0 0 0 0 0 0 0 0 0 0 0 0
0 0 0 0 0 0 0 0 0 0 0 0 0 0 0 0 0 0 0 0 0 0 0 0 0 0 0 0 0 0 0 0 0 0 0 0 0 0 0 0 0 0 0 0 0 0 0 0 0
0 0 0 0 0 0 0 0 0 0 0 0 0 -0 -0 0 0 0 0 0 0 0 0 0 0 0 0 0 0 0 0 0 0 0 0 0 0 0 0 0 0 0 0 0 0 0 0 0 0
Wind_Speed
5 2 3 4 6 5 2 3 4 4 3 2 4 6 4 3 4 4 2 10 12 14 15 19 22 21 19 18 16 15 14 13 12 12 11 11 11 10 10 11 11 11 11 12 12 13 13 14 14
2 2 5 5 5 1 4 3 5 5 6 3 3 5 3 4 2 4 6 9 15 15 13 14 22 22 20 19 17 16 15 14 13 12 12 11 11 10 10 10 10 10 10 10 11 12 12 12 13
2 2 4 5 3 4 4 5 6 3 4 4 3 2 3 4 5 7 7 14 15 14 11 15 24 22 21 20 19 17 16 15 14 13 12 12 11 10 10 10 10 9 9 9 10 10 11 11 11
3 4 5 4 4 7 6 7 6 5 3 3 5 3 3 3 7 8 9 16 16 13 10 14 24 23 22 21 19 18 17 16 15 14 13 12 12 11 10 10 9 9 9 8 8 9 9 10 10
4 4 3 2 6 6 5 7 7 7 6 5 6 5 4 1 3 7 14 18 17 13 11 12 24 23 22 21 20 19 18 17 16 15 14 13 12 11 10 10 9 9 8 8 7 7 8 8 8
4 5 3 3 7 6 4 5 6 5 4 3 6 4 5 1 6 9 14 15 15 15 12 11 23 23 22 21 21 20 19 18 17 16 15 14 13 12 11 10 9 8 8 7 6 6 6 6 7
4 4 2 4 5 6 4 3 5 5 5 7 8 6 4 3 4 7 9 9 10 11 11 9 11 16 21 22 21 20 19 18 18 17 16 15 14 14 13 12 10 9 8 7 6 5 4 4 5
5 4 1 3 4 6 4 1 3 4 5 3 8 8 8 7 7 7 7 7 8 9 10 9 8 9 9 12 20 20 20 19 18 17 16 15 15 14 14 12 12 11 9 8 7 6 4 3 3
5 4 3 5 4 5 2 2 2 1 2 2 4 5 4 9 11 9 6 5 7 11 10 10 8 8 8 8 13 17 18 18 17 15 17 14 5 5 7 10 13 12 11 10 8 7 6 5 3
5 3 7 6 4 4 3 3 3 2 4 3 2 1 3 10 14 15 13 13 14 15 14 11 11 9 8 8 7 6 7 8 8 5 7 5 4 4 6 12 15 14 13 11 10 9 8 4 1
5 7 6 6 4 4 3 4 3 4 8 10 9 7 7 9 12 15 17 17 18 14 13 13 13 10 10 7 5 4 4 4 5 7 6 5 4 3 4 3 6 6 9 4 5 4 1 2 2
4 7 6 5 3 3 4 3 4 6 13 8 8 7 10 13 16 18 19 17 12 10 15 14 13 11 11 8 6 5 5 5 5 6 8 6 4 4 4 3 3 3 2 3 3 2 3 4 4
4 5 5 5 5 5 4 4 4 10 13 7 5 8 13 17 17 17 15 12 11 12 14 14 14 14 12 10 8 8 8 7 7 6 8 8 6 6 5 4 4 4 3 4 4 4 5 5 5
3 3 7 7 7 4 4 4 3 13 6 5 5 9 14 17 19 14 12 14 16 17 15 14 16 16 13 12 11 9 8 7 7 8 9 10 8 6 6 5 5 5 5 5 5 6 5 5 5
2 5 9 6 3 2 2 6 7 12 6 8 8 7 11 15 14 17 18 19 20 17 15 15 15 14 15 14 13 9 8 8 9 9 9 11 9 8 7 6 6 6 5 6 5 6 4 5 5
3 3 5 7 1 1 2 8 11 7 5 8 8 6 5 9 12 15 15 15 15 13 13 15 14 14 15 13 12 8 8 10 9 8 9 12 11 10 8 7 7 6 5 5 5 5 5 6 5
3 2 4 7 1 2 3 10 10 5 5 6 6 6 3 2 4 9 11 14 13 13 13 14 14 15 15 12 9 8 8 9 8 7 8 10 11 10 9 8 7 6 5 6 7 7 5 6 6
3 4 5 6 4 3 5 11 14 6 2 2 4 6 6 6 5 6 7 9 9 10 11 12 13 13 11 8 6 5 6 7 7 8 9 9 10 11 10 7 7 7 6 6 6 7 6 5 5
3 4 7 7 4 3 7 11 12 5 2 3 4 6 7 7 7 7 4 1 4 7 9 11 12 11 9 6 7 8 10 8 6 8 9 10 11 11 11 9 8 8 9 10 9 7 7 6 3
4 4 6 6 4 3 6 9 7 0 3 3 4 5 6 7 9 10 8 5 1 4 6 8 10 10 11 11 9 6 5 5 6 5 7 10 12 12 12 12 9 10 9 9 9 9 6 5 6
4 4 4 4 7 5 4 7 5 4 3 4 4 4 5 6 7 8 7 6 4 1 3 5 8 9 9 8 4 2 1 1 3 6 7 10 12 13 13 14 13 11 11 11 12 11 11 9 7
5 3 2 1 4 5 3 2 5 1 1 2 3 4 4 5 5 5 6 6 5 4 1 2 4 6 6 7 6 8 8 9 10 8 8 8 10 12 14 13 14 13 12 13 13 13 11 11 10
3 0 1 0 1 3 2 2 8 2 4 3 1 1 2 3 4 5 5 5 5 5 4 2 0 2 4 6 8 8 10 11 7 5 7 8 9 11 13 14 13 14 13 14 13 12 13 12 13
1 4 4 4 4 3 3 4 6 5 8 6 3 2 1 2 3 4 4 5 6 6 5 4 2 1 2 5 6 8 11 11 9 8 8 8 7 8 12 12 13 14 13 14 14 14 15 14 14
4 5 4 5 4 5 3 3 9 6 5 8 7 5 2 0 1 2 4 5 5 6 5 4 3 3 2 3 6 8 10 10 12 11 10 9 8 8 10 12 13 13 14 14 13 13 15 16 15
2 6 5 2 4 6 5 4 7 4 4 5 5 4 2 1 1 1 2 3 3 4 4 4 3 4 4 3 5 6 8 7 8 9 9 9 9 9 10 11 13 14 14 14 13 13 15 14 16
3 3 5 5 1 4 7 7 6 4 5 3 3 3 3 2 1 0 1 2 2 3 3 3 3 4 5 5 5 6 6 7 8 9 8 8 9 8 9 10 12 13 14 14 14 13 15 15 16
2 5 4 3 2 4 7 6 4 4 4 3 4 4 4 3 2 1 2 2 2 3 3 3 3 4 4 5 5 5 6 6 7 6 8 8 9 9 9 9 10 11 12 13 13 13 14 15 15
4 3 4 3 4 4 4 8 5 6 6 6 6 5 5 4 3 3 3 3 3 4 4 4 4 4 5 5 5 6 6 6 6 6 8 8 8 8 9 10 10 11 12 12 12 14 13 16 16
6 6 7 4 5 5 3 10 4 4 5 5 4 3 2 2 3 3 3 4 4 5 5 5 5 5 6 5 5 6 6 6 7 8 8 8 8 8 8 9 9 11 11 11 12 14 14 15 16
Wind_Direction
328 25 69 56 53 46 284 264 169 166 183 182 132 118 143 179 188 218 156 148 146 160 171 173 172 171 169 166 164 161 157 154 149 143 137 131 125 119 113 106 100 94 88 83 80 77 74 73 73
355 46 58 61 82 40 283 259 174 191 183 147 115 116 138 220 201 150 150 169 156 163 170 171 174 172 170 168 167 165 163 160 156 152 145 140 135 130 124 116 110 104 96 90 86 82 78 75 75
348 73 82 76 127 191 222 226 201 206 182 157 142 136 181 209 191 189 189 163 158 166 169 175 175 175 173 171 170 169 168 165 163 159 154 149 144 139 132 125 119 112 105 97 91 86 82 79 78
60 51 59 82 239 230 214 215 203 167 206 189 150 169 232 209 186 188 162 159 160 169 169 181 177 177 176 174 174 173 172 170 168 165 162 157 153 148 141 135 131 125 118 110 100 93 86 81 80
62 75 61 320 267 266 236 205 179 181 195 200 169 185 239 257 166 150 154 162 165 169 172 186 180 181 179 178 177 176 176 175 173 171 169 165 160 156 151 148 144 139 132 123 113 102 94 87 83
58 68 82 270 279 292 268 188 174 197 212 202 175 183 243 307 159 162 161 166 168 168 173 185 185 184 183 182 181 180 180 180 178 177 175 172 169 166 164 161 157 152 145 137 128 115 104 96 90
107 103 187 249 284 298 281 175 186 195 202 212 182 182 263 255 201 154 152 152 162 168 173 188 189 186 187 187 185 184 184 184 184 183 181 179 177 175 174 171 170 167 163 157 150 142 129 114 104
122 107 235 262 274 285 291 215 220 201 221 196 151 173 235 217 163 132 129 141 161 174 180 188 190 183 185 188 191 189 188 189 188 188 186 185 185 185 183 179 180 180 178 176 175 173 169 156 134
87 87 240 244 243 266 279 280 277 312 243 212 185 204 243 141 135 134 140 157 175 186 191 188 189 183 181 185 196 192 192 193 192 192 191 188 181 181 185 182 190 191 190 191 193 195 197 195 196
94 161 233 227 218 236 248 244 259 269 259 250 247 337 97 139 157 168 179 184 190 194 195 192 190 185 180 189 194 188 188 191 185 178 182 162 158 179 182 196 201 200 200 202 205 210 210 198 226
165 198 232 247 240 225 238 248 248 220 248 226 219 200 160 166 177 187 194 195 197 192 192 196 194 187 184 187 184 182 180 178 174 175 167 159 164 189 200 207 216 210 205 199 220 229 193 185 210
218 236 229 247 218 212 232 253 275 234 239 227 223 176 171 180 191 197 202 204 196 187 197 196 193 190 190 187 187 182 182 182 183 182 173 168 176 194 202 206 210 199 183 183 205 217 226 230 228
236 257 274 274 266 248 244 248 265 263 261 268 250 168 187 195 203 208 209 208 199 200 197 195 193 194 191 191 193 193 194 192 186 185 188 183 187 198 201 206 204 201 193 193 202 214 224 231 233
261 281 292 280 264 244 233 271 245 269 288 299 252 205 204 206 209 208 211 211 209 209 203 194 196 196 193 196 200 200 197 193 190 196 197 194 195 196 198 205 206 206 203 201 202 208 215 223 225
326 330 318 298 265 240 153 292 243 255 323 310 290 250 218 219 214 213 212 213 211 211 204 197 196 195 197 200 201 200 197 195 201 203 200 202 202 198 199 205 209 210 204 203 207 215 217 226 227
15 7 319 303 134 167 150 267 263 286 322 310 312 303 256 232 222 226 223 222 217 210 204 202 199 195 200 201 199 201 198 201 207 204 202 207 207 201 200 208 213 206 198 200 207 210 213 224 225
17 319 283 299 231 185 214 259 275 322 317 313 330 339 336 303 259 240 231 224 217 209 203 200 201 199 199 199 196 197 196 205 207 204 206 207 208 204 204 212 211 198 201 207 218 212 206 218 225
258 272 274 277 286 211 240 264 286 313 307 331 3 20 28 20 326 286 250 225 212 205 201 201 202 203 195 188 186 193 205 210 208 207 209 203 204 203 206 213 208 196 205 214 218 220 214 218 219
226 243 270 266 281 297 264 276 290 306 65 76 45 34 29 11 344 353 352 207 184 193 197 199 200 200 184 181 192 200 213 210 209 211 207 205 205 203 205 216 206 203 214 219 214 216 222 228 188
230 265 279 294 334 313 292 297 304 14 116 110 78 48 33 17 9 8 16 31 126 204 207 204 203 196 195 201 200 200 207 212 213 213 213 209 210 209 212 215 213 208 216 220 213 207 216 218 184
257 239 256 289 328 346 351 345 0 29 63 58 45 39 32 34 22 8 13 20 22 312 227 216 211 202 202 198 177 166 151 275 223 220 221 214 212 212 217 217 216 213 213 222 218 209 211 223 209
267 243 225 315 8 313 20 309 284 276 69 58 42 36 34 30 28 19 15 13 7 345 324 243 213 207 202 185 186 195 208 224 225 224 226 220 214 217 217 219 218 218 218 224 221 215 214 215 223
236 287 256 223 92 320 313 195 278 242 198 205 178 95 51 38 38 27 18 15 10 7 17 15 96 209 200 196 203 209 227 238 243 234 234 232 225 223 222 221 221 224 223 226 224 217 213 215 224
53 45 49 50 63 318 249 173 271 221 204 189 192 190 136 53 37 23 14 20 15 14 22 26 28 317 219 210 216 222 235 245 252 247 244 242 237 231 227 224 226 227 228 226 224 222 220 221 223
71 65 14 350 2 270 282 222 253 251 200 171 173 183 191 133 39 17 24 22 15 14 10 8 7 330 289 234 233 233 240 245 249 252 250 249 248 242 234 227 230 231 232 230 225 223 225 225 224
178 135 156 231 258 292 318 257 271 323 92 117 140 165 181 189 252 350 18 17 1 4 5 355 342 316 304 272 258 250 247 248 254 254 251 252 253 251 242 231 234 235 234 232 227 227 228 228 228
158 170 170 140 256 278 290 296 322 35 71 100 139 171 198 212 223 301 352 360 350 349 343 329 318 306 300 286 277 272 261 251 256 262 259 259 260 260 251 241 240 240 238 235 230 231 231 229 229
146 145 103 130 204 273 294 287 236 205 204 189 200 207 218 226 243 266 304 323 332 328 323 323 304 288 287 287 277 272 271 264 262 268 268 264 265 264 263 257 250 248 244 239 235 237 235 232 231
162 179 151 143 163 176 264 274 233 203 194 189 210 217 222 233 251 276 300 319 326 327 325 318 312 304 300 294 286 284 282 281 279 272 269 268 270 269 266 263 259 255 251 245 240 239 236 235 236
184 185 152 165 226 190 199 267 280 171 172 181 201 222 240 258 277 293 307 325 328 323 319 315 309 303 295 293 293 289 287 290 287 279 276 274 271 270 267 266 264 262 258 250 245 245 241 237 237